Stündliche Wetter Abrykosivka

Heute, 25 Juni, Freitag

Zeit Temperatur Niederschläge Wind Luftdruck Luftfeuchtigkeit
00:00 +23°C° 0 mm 1 m/S 746 mmHg 87%
01:00 +23°C° 0 mm 1 m/S 746 mmHg 87%
02:00 +22°C° 0 mm 1 m/S 746 mmHg 88%
03:00 +23°C° 0 mm 1 m/S 746 mmHg 87%
04:00 +23°C° 0 mm 1 m/S 746 mmHg 86%
05:00 +21°C° 0 mm 0 m/S 746 mmHg 84%
06:00 +24°C° 0 mm 1 m/S 746 mmHg 79%
07:00 +26°C° 0 mm 1 m/S 746 mmHg 74%
08:00 +27°C° 0 mm 1 m/S 746 mmHg 68%
09:00 +28°C° 0 mm 1 m/S 746 mmHg 64%
10:00 +29°C° 0 mm 1 m/S 746 mmHg 61%
11:00 +30°C° 0 mm 2 m/S 746 mmHg 57%
12:00 +30°C° 0.3 mm 2 m/S 746 mmHg 57%
13:00 +30°C° 0.3 mm 2 m/S 746 mmHg 57%
14:00 +31°C° 0.3 mm 3 m/S 745 mmHg 57%
15:00 +30°C° 0.3 mm 3 m/S 745 mmHg 60%
16:00 +29°C° 0.3 mm 3 m/S 745 mmHg 63%
17:00 +29°C° 0.3 mm 3 m/S 745 mmHg 67%
18:00 +27°C° 0.1 mm 3 m/S 745 mmHg 73%
19:00 +25°C° 0.1 mm 3 m/S 745 mmHg 79%
20:00 +24°C° 0.1 mm 2 m/S 745 mmHg 86%
21:00 +24°C° 0 mm 2 m/S 745 mmHg 86%
22:00 +23°C° 0 mm 2 m/S 745 mmHg 86%
23:00 +23°C° 0 mm 2 m/S 745 mmHg 86%

Morgen, 26 Juni, Samstag

Zeit Temperatur Niederschläge Wind Luftdruck Luftfeuchtigkeit
00:00 +23°C° 0 mm 2 m/S 745 mmHg 86%
01:00 +21°C° 0 mm 2 m/S 744 mmHg 87%
02:00 +22°C° 0 mm 1 m/S 744 mmHg 87%
03:00 +22°C° 0 mm 1 m/S 744 mmHg 87%
04:00 +23°C° 0 mm 1 m/S 744 mmHg 86%
05:00 +23°C° 0 mm 1 m/S 744 mmHg 86%
06:00 +24°C° 0 mm 1 m/S 744 mmHg 80%
07:00 +26°C° 0 mm 1 m/S 744 mmHg 74%
08:00 +27°C° 0 mm 1 m/S 744 mmHg 69%
09:00 +28°C° 0 mm 1 m/S 744 mmHg 65%
10:00 +29°C° 0 mm 2 m/S 744 mmHg 61%
11:00 +30°C° 0 mm 2 m/S 744 mmHg 57%
12:00 +30°C° 0.1 mm 2 m/S 744 mmHg 57%
13:00 +31°C° 0.1 mm 3 m/S 744 mmHg 56%
14:00 +31°C° 0.1 mm 3 m/S 744 mmHg 55%
15:00 +30°C° 0.4 mm 3 m/S 744 mmHg 58%
16:00 +30°C° 0.4 mm 3 m/S 744 mmHg 61%
17:00 +29°C° 0.4 mm 3 m/S 744 mmHg 63%
18:00 +28°C° 0.1 mm 2 m/S 744 mmHg 69%
19:00 +26°C° 0.1 mm 2 m/S 744 mmHg 76%
20:00 +25°C° 0.1 mm 2 m/S 744 mmHg 82%
21:00 +24°C° 0 mm 2 m/S 744 mmHg 83%
22:00 +24°C° 0 mm 2 m/S 744 mmHg 85%
23:00 +23°C° 0 mm 2 m/S 744 mmHg 86%

übermorgen, 27 Juni, Sonntag

Zeit Temperatur Niederschläge Wind Luftdruck Luftfeuchtigkeit
00:00 +23°C° 0 mm 2 m/S 744 mmHg 87%
01:00 +23°C° 0 mm 2 m/S 744 mmHg 87%
02:00 +21°C° 0 mm 2 m/S 744 mmHg 88%
03:00 +21°C° 0.1 mm 2 m/S 744 mmHg 87%
04:00 +23°C° 0.1 mm 2 m/S 744 mmHg 86%
05:00 +23°C° 0.1 mm 1 m/S 744 mmHg 85%
06:00 +24°C° 0 mm 1 m/S 744 mmHg 79%
07:00 +26°C° 0 mm 2 m/S 744 mmHg 72%
08:00 +28°C° 0 mm 2 m/S 744 mmHg 66%
09:00 +29°C° 0 mm 2 m/S 744 mmHg 62%
10:00 +30°C° 0 mm 3 m/S 744 mmHg 58%
11:00 +31°C° 0 mm 3 m/S 745 mmHg 55%
12:00 +31°C° 0.2 mm 3 m/S 744 mmHg 54%
13:00 +32°C° 0.2 mm 4 m/S 744 mmHg 54%
14:00 +32°C° 0.2 mm 4 m/S 744 mmHg 53%
15:00 +30°C° 0.9 mm 4 m/S 744 mmHg 59%
16:00 +29°C° 0.9 mm 4 m/S 744 mmHg 64%
17:00 +28°C° 0.9 mm 4 m/S 744 mmHg 70%
18:00 +27°C° 0.6 mm 3 m/S 744 mmHg 74%
19:00 +26°C° 0.6 mm 3 m/S 744 mmHg 79%
20:00 +24°C° 0.6 mm 2 m/S 744 mmHg 84%
21:00 +24°C° 0.4 mm 2 m/S 745 mmHg 85%
22:00 +24°C° 0.4 mm 2 m/S 745 mmHg 85%
23:00 +23°C° 0.4 mm 2 m/S 745 mmHg 86%

28 Juni, Montag

Zeit Temperatur Niederschläge Wind Luftdruck Luftfeuchtigkeit
00:00 +23°C° 0 mm 2 m/S 745 mmHg 86%
01:00 +23°C° 0 mm 2 m/S 745 mmHg 86%
02:00 +21°C° 0 mm 2 m/S 745 mmHg 85%
03:00 +21°C° 0 mm 2 m/S 745 mmHg 86%
04:00 +23°C° 0 mm 2 m/S 745 mmHg 86%
05:00 +23°C° 0 mm 2 m/S 745 mmHg 87%
06:00 +24°C° 0 mm 3 m/S 745 mmHg 81%
07:00 +25°C° 0 mm 3 m/S 746 mmHg 75%
08:00 +27°C° 0 mm 4 m/S 746 mmHg 69%
09:00 +28°C° 0 mm 3 m/S 746 mmHg 63%
10:00 +29°C° 0 mm 3 m/S 746 mmHg 58%
11:00 +30°C° 0 mm 3 m/S 746 mmHg 53%
12:00 +30°C° 0 mm 3 m/S 746 mmHg 50%
13:00 +31°C° 0 mm 3 m/S 746 mmHg 48%
14:00 +32°C° 0 mm 4 m/S 746 mmHg 45%
15:00 +32°C° 0 mm 4 m/S 746 mmHg 49%
16:00 +30°C° 0 mm 4 m/S 746 mmHg 53%
17:00 +29°C° 0 mm 4 m/S 746 mmHg 56%
18:00 +28°C° 0.1 mm 3 m/S 746 mmHg 63%
19:00 +26°C° 0.1 mm 3 m/S 746 mmHg 70%
20:00 +24°C° 0.1 mm 3 m/S 747 mmHg 77%
21:00 +24°C° 0 mm 3 m/S 747 mmHg 78%
22:00 +22°C° 0 mm 3 m/S 747 mmHg 80%
23:00 +22°C° 0 mm 3 m/S 747 mmHg 81%

29 Juni, Dienstag

Zeit Temperatur Niederschläge Wind Luftdruck Luftfeuchtigkeit
00:00 +22°C° 0 mm 3 m/S 747 mmHg 82%
01:00 +21°C° 0 mm 3 m/S 746 mmHg 83%
02:00 +21°C° 0 mm 3 m/S 746 mmHg 84%
03:00 +21°C° 0 mm 3 m/S 746 mmHg 85%
04:00 +21°C° 0 mm 3 m/S 747 mmHg 85%
05:00 +21°C° 0 mm 2 m/S 747 mmHg 85%
06:00 +24°C° 0.1 mm 2 m/S 747 mmHg 78%
07:00 +25°C° 0.1 mm 2 m/S 747 mmHg 71%
08:00 +27°C° 0.1 mm 2 m/S 747 mmHg 64%
09:00 +27°C° 0.1 mm 2 m/S 747 mmHg 60%
10:00 +28°C° 0.1 mm 2 m/S 747 mmHg 57%
11:00 +29°C° 0.1 mm 2 m/S 747 mmHg 53%
12:00 +28°C° 0.2 mm 2 m/S 747 mmHg 56%
13:00 +28°C° 0.2 mm 2 m/S 747 mmHg 58%
14:00 +27°C° 0.2 mm 2 m/S 747 mmHg 61%
15:00 +27°C° 0.1 mm 2 m/S 747 mmHg 60%
16:00 +28°C° 0.1 mm 2 m/S 747 mmHg 59%
17:00 +28°C° 0.1 mm 2 m/S 747 mmHg 58%
18:00 +26°C° 0 mm 2 m/S 747 mmHg 62%
19:00 +25°C° 0 mm 1 m/S 747 mmHg 67%
20:00 +24°C° 0 mm 1 m/S 747 mmHg 72%
21:00 +23°C° 0.1 mm 2 m/S 747 mmHg 73%
22:00 +21°C° 0.1 mm 2 m/S 747 mmHg 75%
23:00 +21°C° 0.1 mm 3 m/S 747 mmHg 77%

30 Juni, Mittwoch

Zeit Temperatur Niederschläge Wind Luftdruck Luftfeuchtigkeit
00:00 +20°C° 0 mm 3 m/S 747 mmHg 75%
01:00 +20°C° 0 mm 3 m/S 747 mmHg 73%
02:00 +20°C° 0 mm 3 m/S 747 mmHg 71%
03:00 +20°C° 0 mm 3 m/S 747 mmHg 71%
04:00 +20°C° 0 mm 3 m/S 748 mmHg 71%
05:00 +20°C° 0 mm 3 m/S 748 mmHg 71%
06:00 +22°C° 0 mm 3 m/S 748 mmHg 66%
07:00 +24°C° 0 mm 3 m/S 748 mmHg 60%
08:00 +26°C° 0 mm 3 m/S 748 mmHg 55%
09:00 +27°C° 0 mm 2 m/S 748 mmHg 50%
10:00 +28°C° 0 mm 2 m/S 748 mmHg 46%
11:00 +29°C° 0 mm 2 m/S 748 mmHg 41%
12:00 +29°C° 0 mm 2 m/S 748 mmHg 44%
13:00 +29°C° 0 mm 2 m/S 748 mmHg 47%
14:00 +28°C° 0 mm 3 m/S 748 mmHg 49%
15:00 +27°C° 0 mm 3 m/S 748 mmHg 53%
16:00 +27°C° 0 mm 2 m/S 748 mmHg 57%
17:00 +26°C° 0 mm 2 m/S 748 mmHg 61%
18:00 +25°C° 0 mm 2 m/S 748 mmHg 64%
19:00 +24°C° 0 mm 2 m/S 748 mmHg 66%
20:00 +24°C° 0 mm 2 m/S 748 mmHg 69%
21:00 +23°C° 0 mm 2 m/S 748 mmHg 70%
22:00 +23°C° 0 mm 2 m/S 748 mmHg 71%
23:00 +23°C° 0 mm 2 m/S 748 mmHg 72%
Mehr zeigen

Wir brauchen deine Erlaubnis

Meteoprog und unser Service Anbieter werden persönliche Daten aufbewahren, so wie Cookies, Geräte Bezeichnung oder ähnliche Technologien von deinem Gerät und Prozess, so wie Persönliche Daten Inhalte und Werbungen, genauso wie social Media und den Verkehr zu analysieren.

  • Aufbewahrung und/oder Zugang zu deiner Geräte Informationen.

    Cookies, Geräte Bezeichnung oder andere Informationen, können aufbewahrt oder Zugang zu deinem Gerät erhalten, für den Grund, der oben angegeben wird.

  • Personalisierte Werbung und Inhalte, Messungen, Einblick in das Publikum und Produkt Entwicklung.

    Werbungen und Inhalte können personalisiert werden, basierend auf ein Profil. Mehr Daten können besser personalisierte Werbungen und Inhalte hinzufügen. Werbung und Inhalte können gezeigt und gemessen werden. Einblicke über das Publikum, welche die Werbung gesehen haben und den Inhalt, können abgeleitet werden. So wie Daten können genutzt werden, um es zu verbessern oder die Benutzer Erfahrung zu verbessern das System und die Software.

Wenn du “Ich stimme zu” klickst, erlaubst du uns, die Cookies zu benutzen die Geräte Bezeichnung, den Web oder ähnliche Technologien zu benutzen. Deine Settings, können in deinem Gerät bei deinem Browser geändert werden.

Für den bestimmten Zweck, berechtigten Interessen beruhen darauf, mehr als auf den Inhalt. Du kannst mehr darüber in unseren Privaten und Cookie Politik lesen.